This demonstration page uses our WeatherBlox Daily Observations layout. Learn more.

Left ArrowRight Arrow

30.21309, -93.2044

Hourly Observations for July 14, 2022

Temp ( °F °C ) Dew Point ( °F °C ) Humidity (%) Winds ( mph kmh ) Pressure ( in mb ) Visibility ( mi km ) Precip ( " mm )
12:15 am 00:15 Clear 79 26.3 76 24.6 90 90 E 3 6 30.04 1017 10 16 0.00 0.00
12:35 am 00:35 Clear 80 26.8 76 24.7 88 88 N 5 7 30.06 1018 10 16 0.00 0.00
12:55 am 00:55 Partly Cloudy 81 27.1 77 24.8 87 87 NNW 9 15 30.08 1019 10 16 0.00 0.00
1:15 am 01:15 Cloudy with Nearby Thunderstorms 76 24.5 67 19.5 74 74 N 13 20 30.07 1018 10 16 0.00 0.00
1:35 am 01:35 Cloudy with Strong Thunderstorms 72 22.4 69 20.5 89 89 NE 15 24 30.06 1018 4 6 0.18 4.57
1:55 am 01:55 Cloudy with Mist and Fog 73 23 71 21.5 91 91 ENE 13 20 30.01 1016 7 11 0.20 5.08
2:15 am 02:15 Partly Cloudy with Light Rain 74 23.5 71 21.9 91 91 NNW 9 15 30.01 1016 10 16 0.01 0.25
2:35 am 02:35 Clear 74 23.2 71 21.4 90 90 NW 7 11 30.01 1016 10 16 0.01 0.25
2:55 am 02:55 Clear 73 22.9 70 21 89 89 N 3 6 29.99 1016 10 16 0.01 0.25
3:15 am 03:15 Partly Cloudy 73 22.7 70 21.3 92 92 ESE 6 9 29.99 1016 10 16 0.00 0.00
3:35 am 03:35 Partly Cloudy 73 22.9 71 21.5 92 92 ENE 3 6 30.00 1016 10 16 0.00 0.00
3:55 am 03:55 Partly Cloudy with Nearby Thunderstorms 73 22.9 70 21.3 91 91 Calm 30.00 1016 10 16 0.00 0.00
4:15 am 04:15 Partly Cloudy with Light Rain 74 23.1 71 21.6 91 91 NNW 7 11 30.00 1016 10 16 0.00 0.00
4:35 am 04:35 Clear 73 22.8 71 21.5 92 92 N 5 7 30.00 1016 10 16 0.00 0.00
4:55 am 04:55 Clear 73 22.9 71 21.5 92 92 NNE 3 6 30.01 1016 10 16 0.00 0.00
5:15 am 05:15 Clear 74 23.1 71 21.5 91 91 NNW 3 6 30.01 1016 10 16 0.00 0.00
5:35 am 05:35 Clear 74 23.4 70 21.3 88 88 Calm 30.01 1016 10 16 0.00 0.00
6:00 am 06:00 Partly Cloudy 73 23 72 22 94 94 S 5 7 30.01 1016 10 16 0.00 0.00
6:47 am 06:47 Mostly Sunny 73 23 72 22 94 94 S 5 7 30.03 1017 10 16 0.00 0.00
7:47 am 07:47 Mostly Cloudy 75 24 73 23 94 94 SE 6 9 30.03 1017 10 16 0.00 0.00
8:47 am 08:47 Partly Cloudy 79 26 75 24 89 89 NNW 8 13 30.07 1018 10 16 0.00 0.00
9:45 am 09:45 Mostly Cloudy 81 27 72 22 74 74 NNE 12 19 30.07 1018 10 16 0.00 0.00
10:47 am 10:47 Partly Cloudy 82 28 73 23 74 74 NNW 6 9 30.07 1018 10 16 0.00 0.00
11:50 am 11:50 Mostly Cloudy 86 30 73 23 66 66 Calm 30.07 1018 10 16 0.00 0.00
12:45 pm 12:45 Mostly Cloudy 90 32 75 24 63 63 NW 13 20 30.06 1018 10 16 0.00 0.00
1:55 pm 13:55 Mostly Cloudy with Thunderstorms 86 30 73 23 66 66 SSE 15 24 30.04 1017 10 16 0.00 0.00
2:20 pm 14:20 Cloudy with Thunderstorms 77 25 73 23 89 89 SE 28 44 30.07 1018 2 2 0.00 0.00
2:47 pm 14:47 Mostly Cloudy with Thunderstorms 75 24 72 22 89 89 SSE 15 24 30.06 1018 7 11 0.00 0.00
3:45 pm 15:45 Mostly Cloudy with Thunderstorms 75 24 72 22 89 89 SE 15 24 30.07 1018 6 10 0.00 0.00
4:45 pm 16:45 Partly Cloudy 73 23 70 21 89 89 ESE 9 15 30.05 1018 10 16 0.00 0.00
5:45 pm 17:45 Partly Cloudy 73 23 72 22 94 94 ESE 6 9 30.05 1018 10 16 0.00 0.00
6:47 pm 18:47 Mostly Sunny 75 24 72 22 89 89 ENE 6 9 30.03 1017 10 16 0.00 0.00
7:45 pm 19:45 Mostly Sunny 75 24 73 23 94 94 Calm 30.02 1017 10 16 0.00 0.00
8:50 pm 20:50 Mostly Clear 75 24 73 23 94 94 Calm 30.02 1017 10 16 0.00 0.00
9:45 pm 21:45 Mostly Clear 75 24 73 23 94 94 E 7 11 30.05 1018 10 16 0.00 0.00
10:15 pm 22:15 Clear 76 24.4 73 23 92 92 E 6 9 30.06 1018 10 16 0.00 0.00
10:35 pm 22:35 Clear 76 24.4 74 23.1 92 92 ENE 6 9 30.07 1018 10 16 0.00 0.00
10:55 pm 22:55 Clear 76 24.3 74 23.1 93 93 E 6 9 30.07 1018 10 16 0.00 0.00
11:15 pm 23:15 Clear 76 24.2 74 23.1 94 94 E 5 7 30.07 1018 10 16 0.00 0.00
11:35 pm 23:35 Clear 76 24.2 74 23.2 94 94 E 3 6 30.07 1018 10 16 0.00 0.00
11:55 pm 23:55 Partly Cloudy 76 24.3 74 23.2 94 94 ESE 5 7 30.08 1019 10 16 0.00 0.00

Powered by AerisWeather